Location: Elende
(51.4317°N, 10.6316°E)
Time: 10:56:08
(UTC+00:00)

Cosmos 2034 Rocket - Pass Details

Date: 18 September 2020
Orbit: 957 x 1002 km, 82.9° (Epoch: 30 October)

Event Time Altitude Azimuth Distance (km) Brightness Sun altitude
Rises 18:54:51 0° 177° (S) 3,714 6.8 -14.6°
Reaches altitude 10° 18:57:24 10° 174° (S) 2,767 6.1 -15.0°
Maximum altitude 19:03:41 65° 94° (E) 1,093 4.0 -15.9°
Drops below altitude 10° 19:09:58 10° 15° (NNE) 2,770 6.5 -16.8°
Sets 19:12:30 0° 12° (NNE) 3,718 7.2 -17.1°
